AIC4217 VABB-OMDB

Flight info

Callsign AIC4217
Flight time 2h 28m
Altitude 34000
Route RAXET2A SAKUN V2 SUGID N571 VUSET A454 PASOV B540 KUPMA/N0389F240 B540 MIVEK P574 IMPED
Aircraft B789/H-SDE1E2E3FGHIJ2J3J4J5M1RWXY/LB1D1

Departure

Time 2026-04-23 17:30
Airport Chhatrapati Shivaji Maharaj International Airport (VABB)

Arrival

Time 2026-04-23 19:58
Airport Dubai International Airport (OMDB)
Time Latitude Longitude Altitude Speed Heading
2026-04-23 17:08 19.09314 72.87210 54 ft 0 kts 337°
2026-04-23 17:12 19.09313 72.87210 55 ft 0 kts 337°
2026-04-23 17:18 19.09275 72.87227 48 ft 4 kts 330°
2026-04-23 17:18 19.09253 72.87244 47 ft 4 kts 312°
2026-04-23 17:18 19.09239 72.87267 47 ft 4 kts 281°
2026-04-23 17:19 19.09238 72.87277 47 ft 2 kts 267°
2026-04-23 17:19 19.09237 72.87249 47 ft 4 kts 268°
2026-04-23 17:19 19.09236 72.87221 47 ft 4 kts 269°
2026-04-23 17:19 19.09236 72.87192 49 ft 4 kts 269°
2026-04-23 17:20 19.09235 72.87164 53 ft 4 kts 269°
2026-04-23 17:20 19.09235 72.87151 55 ft 0 kts 269°
2026-04-23 17:23 19.09235 72.87140 49 ft 2 kts 269°
2026-04-23 17:24 19.09233 72.87103 55 ft 6 kts 260°
2026-04-23 17:24 19.09216 72.87083 50 ft 2 kts 203°
2026-04-23 17:24 19.09159 72.87085 50 ft 7 kts 161°
2026-04-23 17:25 19.09131 72.87191 50 ft 10 kts 81°
2026-04-23 17:25 19.09139 72.87258 50 ft 8 kts 91°
2026-04-23 17:26 19.09121 72.87269 48 ft 3 kts 182°
2026-04-23 17:26 19.09051 72.87321 50 ft 10 kts 101°
2026-04-23 17:27 19.09051 72.87571 50 ft 20 kts 90°
2026-04-23 17:27 19.09056 72.87722 48 ft 21 kts 90°
2026-04-23 17:27 19.09058 72.87879 49 ft 22 kts 89°
2026-04-23 17:27 19.09058 72.88033 54 ft 11 kts 108°
2026-04-23 17:28 19.09038 72.88046 52 ft 6 kts 167°
2026-04-23 17:28 19.08958 72.88051 51 ft 14 kts 184°
2026-04-23 17:28 19.08895 72.87997 50 ft 12 kts 253°
2026-04-23 17:28 19.08887 72.87914 53 ft 11 kts 270°
2026-04-23 17:29 19.08887 72.87797 53 ft 25 kts 270°
2026-04-23 17:29 19.08881 72.87428 55 ft 78 kts 269°
2026-04-23 17:29 19.08854 72.85493 248 ft 164 kts 264°
2026-04-23 17:30 19.08841 72.84724 756 ft 151 kts 269°
2026-04-23 17:30 19.08827 72.81844 1596 ft 181 kts 274°
2026-04-23 17:30 19.08803 72.80473 2021 ft 195 kts 274°
2026-04-23 17:31 19.08780 72.79009 2462 ft 209 kts 273°
2026-04-23 17:31 19.08750 72.77428 2931 ft 222 kts 272°
2026-04-23 17:31 19.08719 72.75747 3368 ft 236 kts 272°
2026-04-23 17:31 19.08832 72.73974 3771 ft 248 kts 280°
2026-04-23 17:32 19.09047 72.72116 4193 ft 262 kts 278°
2026-04-23 17:32 19.09248 72.70149 4658 ft 274 kts 277°
2026-04-23 17:32 19.09461 72.68108 5345 ft 280 kts 277°
2026-04-23 17:32 19.09683 72.66060 6243 ft 280 kts 276°
2026-04-23 17:33 19.09907 72.64007 7041 ft 282 kts 276°
2026-04-23 17:33 19.10130 72.61933 7793 ft 286 kts 276°
2026-04-23 17:33 19.10355 72.59833 8548 ft 289 kts 275°
2026-04-23 17:33 19.10583 72.57709 9270 ft 293 kts 275°
2026-04-23 17:34 19.10813 72.55565 9992 ft 296 kts 274°
2026-04-23 17:34 19.11050 72.53347 10407 ft 311 kts 275°
2026-04-23 17:34 19.11558 72.48575 11122 ft 342 kts 275°
2026-04-23 17:35 19.11833 72.46021 11558 ft 354 kts 275°
2026-04-23 17:35 19.12297 72.41681 12665 ft 361 kts 275°
2026-04-23 17:35 19.12676 72.38111 13525 ft 368 kts 276°
2026-04-23 17:36 19.12964 72.35404 14100 ft 374 kts 276°
2026-04-23 17:36 19.13255 72.32658 14718 ft 377 kts 276°
2026-04-23 17:36 19.13548 72.29897 15381 ft 380 kts 276°
2026-04-23 17:36 19.13743 72.28054 15816 ft 381 kts 276°
2026-04-23 17:37 19.14038 72.25259 16472 ft 383 kts 276°
2026-04-23 17:37 19.14335 72.22442 17032 ft 388 kts 276°
2026-04-23 17:37 19.14938 72.16710 18187 ft 396 kts 276°
2026-04-23 17:38 19.15243 72.13809 18750 ft 398 kts 276°
2026-04-23 17:38 19.15572 72.10895 19273 ft 400 kts 279°
2026-04-23 17:38 19.16421 72.08088 19720 ft 403 kts 296°
2026-04-23 17:38 19.17733 72.05469 20266 ft 404 kts 301°
2026-04-23 17:39 19.19152 72.02895 20774 ft 406 kts 301°
2026-04-23 17:39 19.20510 72.00261 21287 ft 409 kts 299°
2026-04-23 17:39 19.21808 71.97571 21773 ft 412 kts 298°
2026-04-23 17:39 19.23136 71.94874 22237 ft 415 kts 300°
2026-04-23 17:40 19.24515 71.92183 22739 ft 417 kts 300°
2026-04-23 17:40 19.25898 71.89473 23227 ft 420 kts 300°
2026-04-23 17:40 19.27267 71.86732 23622 ft 423 kts 299°
2026-04-23 17:40 19.28643 71.83968 24022 ft 425 kts 299°
2026-04-23 17:41 19.30035 71.81198 24431 ft 427 kts 299°
2026-04-23 17:41 19.32840 71.75621 25212 ft 431 kts 300°
2026-04-23 17:41 19.34248 71.72809 25597 ft 433 kts 299°
2026-04-23 17:42 19.37086 71.67145 26352 ft 437 kts 300°
2026-04-23 17:42 19.38516 71.64291 26729 ft 439 kts 299°
2026-04-23 17:42 19.39949 71.61424 27084 ft 442 kts 300°
2026-04-23 17:43 19.41390 71.58544 27445 ft 444 kts 299°
2026-04-23 17:43 19.42838 71.55648 27801 ft 446 kts 299°
2026-04-23 17:43 19.44292 71.52737 28144 ft 448 kts 299°
2026-04-23 17:43 19.45754 71.49809 28502 ft 450 kts 300°
2026-04-23 17:44 19.47219 71.46875 28842 ft 452 kts 299°
2026-04-23 17:44 19.48693 71.43920 29175 ft 454 kts 300°
2026-04-23 17:44 19.51655 71.37979 29864 ft 458 kts 300°
2026-04-23 17:45 19.53125 71.35028 30138 ft 460 kts 300°
2026-04-23 17:45 19.56123 71.29005 30702 ft 464 kts 299°
2026-04-23 17:45 19.57631 71.25973 30987 ft 465 kts 298°
2026-04-23 17:46 19.60632 71.19870 31518 ft 469 kts 296°
2026-04-23 17:46 19.61756 71.16616 31769 ft 471 kts 289°
2026-04-23 17:46 19.62760 71.13302 32083 ft 472 kts 288°
2026-04-23 17:47 19.63769 71.09981 32347 ft 474 kts 288°
2026-04-23 17:47 19.64820 71.06664 32653 ft 475 kts 289°
2026-04-23 17:47 19.66908 71.00031 33428 ft 473 kts 287°
2026-04-23 17:48 19.67930 70.96714 33736 ft 473 kts 287°
2026-04-23 17:48 19.68963 70.93394 33860 ft 476 kts 288°
2026-04-23 17:48 19.70011 70.90055 33838 ft 475 kts 287°
2026-04-23 17:49 19.72071 70.83434 33854 ft 471 kts 287°
2026-04-23 17:49 19.74114 70.76855 33845 ft 468 kts 287°
2026-04-23 17:50 19.76163 70.70254 33858 ft 473 kts 288°
2026-04-23 17:50 19.79242 70.60314 33854 ft 472 kts 287°
2026-04-23 17:51 19.81286 70.53702 33863 ft 472 kts 287°
2026-04-23 17:52 19.84343 70.43797 33871 ft 470 kts 287°
2026-04-23 17:52 19.86037 70.37124 33868 ft 467 kts 275°
2026-04-23 17:52 19.86066 70.33675 33866 ft 468 kts 264°
2026-04-23 17:53 19.84438 70.26992 33880 ft 468 kts 251°
2026-04-23 17:53 19.83386 70.23727 33880 ft 467 kts 251°
2026-04-23 17:54 19.81317 70.17171 33868 ft 468 kts 251°
2026-04-23 17:54 19.78206 70.07358 33879 ft 469 kts 251°
2026-04-23 17:55 19.75110 69.97588 33880 ft 468 kts 251°
2026-04-23 17:56 19.73027 69.91044 33877 ft 466 kts 251°
2026-04-23 17:56 19.69904 69.81234 33872 ft 469 kts 251°
2026-04-23 17:57 19.67816 69.74687 33884 ft 470 kts 251°
2026-04-23 17:58 19.64678 69.64868 33879 ft 468 kts 251°
2026-04-23 17:58 19.62581 69.58320 33887 ft 467 kts 251°
2026-04-23 17:59 19.60487 69.51788 33877 ft 469 kts 251°
2026-04-23 17:59 19.58391 69.45258 33877 ft 466 kts 251°
2026-04-23 18:00 19.56553 69.38659 33880 ft 468 kts 262°
2026-04-23 18:00 19.56418 69.35225 33879 ft 467 kts 273°
2026-04-23 18:00 19.56946 69.31834 33886 ft 468 kts 284°
2026-04-23 18:00 19.58108 69.28611 33884 ft 469 kts 296°
2026-04-23 18:01 19.59608 69.25534 33897 ft 471 kts 297°
2026-04-23 18:01 19.62609 69.19373 33894 ft 468 kts 296°
2026-04-23 18:02 19.65542 69.13208 33892 ft 466 kts 296°
2026-04-23 18:02 19.68508 69.07067 33899 ft 469 kts 296°
2026-04-23 18:03 19.71436 69.00934 33890 ft 469 kts 296°
2026-04-23 18:03 19.74395 68.94768 33894 ft 468 kts 296°
2026-04-23 18:04 19.77339 68.88605 33887 ft 467 kts 296°
2026-04-23 18:04 19.80282 68.82448 33890 ft 470 kts 296°
2026-04-23 18:05 19.83240 68.76249 33893 ft 472 kts 296°
2026-04-23 18:05 19.86199 68.70043 33897 ft 469 kts 296°
2026-04-23 18:06 19.89148 68.63851 33893 ft 469 kts 296°
2026-04-23 18:06 19.92090 68.57666 33897 ft 470 kts 296°
2026-04-23 18:07 19.95035 68.51468 33901 ft 471 kts 296°
2026-04-23 18:07 19.97992 68.45238 33900 ft 471 kts 296°
2026-04-23 18:08 20.00444 68.40066 33897 ft 471 kts 296°
2026-04-23 18:08 20.03882 68.32808 33898 ft 471 kts 296°
2026-04-23 18:09 20.06823 68.26590 33893 ft 471 kts 296°
2026-04-23 18:09 20.09767 68.20360 33902 ft 471 kts 296°
2026-04-23 18:10 20.12690 68.14168 33897 ft 471 kts 297°
2026-04-23 18:10 20.15649 68.07893 33887 ft 472 kts 297°
2026-04-23 18:11 20.18569 68.01691 33900 ft 472 kts 297°
2026-04-23 18:11 20.21510 67.95440 33895 ft 472 kts 297°
2026-04-23 18:12 20.24446 67.89192 33898 ft 471 kts 297°
2026-04-23 18:12 20.27375 67.82952 33891 ft 471 kts 297°
2026-04-23 18:13 20.30302 67.76707 33883 ft 472 kts 296°
2026-04-23 18:13 20.33232 67.70448 33889 ft 471 kts 297°
2026-04-23 18:14 20.36155 67.64203 33888 ft 470 kts 297°
2026-04-23 18:14 20.39071 67.57961 33888 ft 471 kts 297°
2026-04-23 18:15 20.41989 67.51708 33886 ft 472 kts 297°
2026-04-23 18:15 20.44911 67.45441 33888 ft 472 kts 297°
2026-04-23 18:16 20.47831 67.39168 33892 ft 472 kts 297°
2026-04-23 18:16 20.50745 67.32904 33892 ft 472 kts 297°
2026-04-23 18:17 20.55114 67.23496 33895 ft 472 kts 297°
2026-04-23 18:17 20.58028 67.17213 33891 ft 473 kts 297°
2026-04-23 18:18 20.60940 67.10927 33889 ft 472 kts 297°
2026-04-23 18:18 20.63850 67.04637 33889 ft 473 kts 297°
2026-04-23 18:19 20.66761 66.98336 33891 ft 473 kts 298°
2026-04-23 18:19 20.69667 66.92040 33887 ft 472 kts 297°
2026-04-23 18:20 20.72550 66.85790 33882 ft 473 kts 297°
2026-04-23 18:20 20.75456 66.79478 33884 ft 473 kts 297°
2026-04-23 18:21 20.78357 66.73169 33885 ft 472 kts 297°
2026-04-23 18:21 20.81248 66.66879 33885 ft 471 kts 298°
2026-04-23 18:22 20.84130 66.60599 33888 ft 471 kts 297°
2026-04-23 18:22 20.87013 66.54309 33888 ft 471 kts 297°
2026-04-23 18:23 20.91342 66.44851 33890 ft 473 kts 297°
2026-04-23 18:24 20.95671 66.35373 33888 ft 472 kts 297°
2026-04-23 18:25 20.99493 66.26993 33881 ft 470 kts 297°
2026-04-23 18:25 21.02359 66.20703 33893 ft 470 kts 297°
2026-04-23 18:26 21.05215 66.14424 33897 ft 469 kts 297°
2026-04-23 18:26 21.08067 66.08147 33890 ft 469 kts 297°
2026-04-23 18:27 21.10923 66.01854 33898 ft 470 kts 297°
2026-04-23 18:27 21.13825 65.95571 33899 ft 471 kts 299°
2026-04-23 18:28 21.16817 65.89324 33883 ft 471 kts 299°
2026-04-23 18:28 21.19741 65.83052 33883 ft 470 kts 299°
2026-04-23 18:29 21.22693 65.76812 33890 ft 469 kts 299°
2026-04-23 18:29 21.25619 65.70564 33888 ft 469 kts 299°
2026-04-23 18:30 21.28554 65.64317 33892 ft 470 kts 299°
2026-04-23 18:30 21.31492 65.58043 33889 ft 471 kts 299°
2026-04-23 18:31 21.34416 65.51799 33890 ft 472 kts 299°
2026-04-23 18:31 21.37358 65.45504 33888 ft 471 kts 299°
2026-04-23 18:32 21.40290 65.39225 33888 ft 470 kts 299°
2026-04-23 18:32 21.43211 65.32962 33879 ft 469 kts 299°
2026-04-23 18:33 21.46122 65.26714 33876 ft 467 kts 299°
2026-04-23 18:33 21.49036 65.20454 33882 ft 470 kts 299°
2026-04-23 18:34 21.51959 65.14161 33889 ft 471 kts 299°
2026-04-23 18:34 21.54877 65.07876 33884 ft 470 kts 299°
2026-04-23 18:35 21.57787 65.01598 33883 ft 469 kts 299°
2026-04-23 18:35 21.60691 64.95326 33883 ft 468 kts 299°
2026-04-23 18:36 21.63586 64.89065 33875 ft 468 kts 299°
2026-04-23 18:36 21.66485 64.82790 33878 ft 469 kts 299°
2026-04-23 18:37 21.69386 64.76502 33878 ft 470 kts 299°
2026-04-23 18:37 21.72288 64.70205 33885 ft 470 kts 298°
2026-04-23 18:38 21.75192 64.63895 33892 ft 471 kts 298°
2026-04-23 18:38 21.78096 64.57577 33887 ft 471 kts 298°
2026-04-23 18:39 21.80988 64.51276 33882 ft 469 kts 298°
2026-04-23 18:39 21.83868 64.44997 33874 ft 467 kts 298°
2026-04-23 18:40 21.86744 64.38717 33881 ft 468 kts 298°
2026-04-23 18:40 21.89621 64.32427 33874 ft 467 kts 298°
2026-04-23 18:41 21.92488 64.26152 33875 ft 467 kts 298°
2026-04-23 18:41 21.95355 64.19868 33877 ft 468 kts 298°
2026-04-23 18:42 21.98229 64.13561 33879 ft 469 kts 298°
2026-04-23 18:42 22.01103 64.07247 33879 ft 469 kts 298°
2026-04-23 18:43 22.03944 64.00996 33870 ft 465 kts 298°
2026-04-23 18:43 22.06784 63.94743 33869 ft 465 kts 298°
2026-04-23 18:44 22.09624 63.88480 33871 ft 465 kts 298°
2026-04-23 18:44 22.12463 63.82209 33868 ft 465 kts 298°
2026-04-23 18:45 22.15304 63.75929 33871 ft 466 kts 297°
2026-04-23 18:45 22.18136 63.69659 33865 ft 462 kts 298°
2026-04-23 18:46 22.20947 63.63431 33870 ft 462 kts 298°
2026-04-23 18:46 22.23764 63.57179 33870 ft 464 kts 298°
2026-04-23 18:47 22.26586 63.50909 33873 ft 464 kts 298°
2026-04-23 18:47 22.29398 63.44653 33874 ft 463 kts 298°
2026-04-23 18:48 22.32204 63.38404 33865 ft 462 kts 298°
2026-04-23 18:48 22.35002 63.32164 33865 ft 461 kts 298°
2026-04-23 18:49 22.37790 63.25938 33863 ft 460 kts 298°
2026-04-23 18:49 22.40580 63.19701 33866 ft 462 kts 298°
2026-04-23 18:50 22.42902 63.14502 33866 ft 463 kts 298°
2026-04-23 18:50 22.45962 63.07054 33865 ft 466 kts 294°
2026-04-23 18:51 22.48492 63.00625 33865 ft 464 kts 295°
2026-04-23 18:51 22.50998 62.94189 33864 ft 465 kts 294°
2026-04-23 18:52 22.53511 62.87750 33859 ft 465 kts 294°
2026-04-23 18:52 22.56017 62.81312 33856 ft 464 kts 294°
2026-04-23 18:53 22.58504 62.74914 33857 ft 464 kts 294°
2026-04-23 18:53 22.61007 62.68471 33858 ft 465 kts 294°
2026-04-23 18:54 22.63509 62.62017 33861 ft 465 kts 294°
2026-04-23 18:54 22.66009 62.55562 33860 ft 464 kts 294°
2026-04-23 18:55 22.68503 62.49111 33860 ft 465 kts 294°
2026-04-23 18:55 22.70996 62.42654 33857 ft 465 kts 294°
2026-04-23 18:56 22.73083 62.37242 33857 ft 464 kts 294°
2026-04-23 18:56 22.75967 62.29753 33854 ft 463 kts 294°
2026-04-23 18:57 22.78449 62.23300 33855 ft 464 kts 294°
2026-04-23 18:57 22.80923 62.16854 33855 ft 462 kts 294°
2026-04-23 18:58 22.83386 62.10429 33855 ft 461 kts 294°
2026-04-23 18:58 22.85844 62.04013 33857 ft 463 kts 294°
2026-04-23 18:59 22.88311 61.97560 33855 ft 465 kts 293°
2026-04-23 18:59 22.90772 61.91113 33854 ft 461 kts 293°
2026-04-23 19:00 22.93209 61.84722 33853 ft 457 kts 293°
2026-04-23 19:00 22.95648 61.78316 33854 ft 461 kts 293°
2026-04-23 19:01 22.98101 61.71862 33857 ft 461 kts 293°
2026-04-23 19:01 23.00537 61.65445 33853 ft 458 kts 293°
2026-04-23 19:02 23.02556 61.60123 33851 ft 461 kts 293°
2026-04-23 19:02 23.05407 61.52589 33853 ft 462 kts 293°
2026-04-23 19:03 23.07842 61.46149 33855 ft 460 kts 293°
2026-04-23 19:03 23.10247 61.39778 33850 ft 458 kts 293°
2026-04-23 19:04 23.12673 61.33342 33862 ft 462 kts 293°
2026-04-23 19:04 23.15098 61.26899 33860 ft 459 kts 293°
2026-04-23 19:05 23.17511 61.20479 33855 ft 459 kts 293°
2026-04-23 19:05 23.19920 61.14060 33857 ft 459 kts 293°
2026-04-23 19:06 23.22333 61.07622 33857 ft 461 kts 293°
2026-04-23 19:06 23.24739 61.01190 33851 ft 458 kts 293°
2026-04-23 19:07 23.27135 60.94779 33848 ft 458 kts 292°
2026-04-23 19:07 23.29531 60.88359 33849 ft 458 kts 292°
2026-04-23 19:08 23.31926 60.81931 33846 ft 458 kts 292°
2026-04-23 19:08 23.34311 60.75521 33840 ft 456 kts 292°
2026-04-23 19:09 23.36690 60.69118 33846 ft 457 kts 292°
2026-04-23 19:09 23.39068 60.62703 33847 ft 457 kts 292°
2026-04-23 19:10 23.41417 60.56269 33846 ft 458 kts 292°
2026-04-23 19:10 23.43776 60.49830 33845 ft 458 kts 292°
2026-04-23 19:11 23.46114 60.43430 33842 ft 455 kts 292°
2026-04-23 19:11 23.48438 60.37059 33837 ft 452 kts 292°
2026-04-23 19:12 23.50394 60.31692 33843 ft 459 kts 291°
2026-04-23 19:12 23.53135 60.24154 33844 ft 459 kts 291°
2026-04-23 19:13 23.55484 60.17688 33847 ft 459 kts 291°
2026-04-23 19:13 23.57435 60.12306 33836 ft 451 kts 291°
2026-04-23 19:14 23.59741 60.05940 33837 ft 452 kts 291°
2026-04-23 19:14 23.62051 59.99552 33836 ft 453 kts 291°
2026-04-23 19:15 23.64361 59.93157 33843 ft 453 kts 291°
2026-04-23 19:15 23.66652 59.86804 33849 ft 452 kts 291°
2026-04-23 19:16 23.68937 59.80456 33836 ft 449 kts 291°
2026-04-23 19:16 23.71221 59.74102 33839 ft 450 kts 291°
2026-04-23 19:17 23.74651 59.64543 33842 ft 451 kts 291°
2026-04-23 19:17 23.76936 59.58165 33846 ft 449 kts 291°
2026-04-23 19:18 23.79189 59.51864 33828 ft 445 kts 291°
2026-04-23 19:18 23.81442 59.45557 33837 ft 447 kts 291°
2026-04-23 19:19 23.84832 59.36046 33830 ft 449 kts 291°
2026-04-23 19:20 23.88212 59.26544 33825 ft 444 kts 291°
2026-04-23 19:20 23.90442 59.20260 33827 ft 444 kts 291°
2026-04-23 19:21 23.93697 59.10774 33841 ft 444 kts 289°
2026-04-23 19:22 23.95766 59.04391 33845 ft 446 kts 289°
2026-04-23 19:22 23.98824 58.94830 33831 ft 442 kts 289°
2026-04-23 19:23 24.00859 58.88495 33832 ft 442 kts 289°
2026-04-23 19:24 24.03909 58.78940 33838 ft 444 kts 289°
2026-04-23 19:24 24.06958 58.69375 33838 ft 444 kts 289°
2026-04-23 19:25 24.10997 58.56668 33842 ft 443 kts 289°
2026-04-23 19:26 24.14026 58.47112 33842 ft 442 kts 289°
2026-04-23 19:27 24.19042 58.31232 33846 ft 443 kts 288°
2026-04-23 19:28 24.23053 58.18489 33843 ft 441 kts 288°
2026-04-23 19:29 24.26036 58.08985 33833 ft 439 kts 288°
2026-04-23 19:30 24.29010 57.99485 33834 ft 439 kts 288°
2026-04-23 19:31 24.31977 57.89986 33844 ft 438 kts 288°
2026-04-23 19:31 24.33951 57.83651 33847 ft 440 kts 288°
2026-04-23 19:32 24.35929 57.77296 33849 ft 440 kts 288°
2026-04-23 19:32 24.37904 57.70936 33848 ft 441 kts 288°
2026-04-23 19:33 24.39880 57.64565 33850 ft 441 kts 288°
2026-04-23 19:33 24.42802 57.55126 33844 ft 436 kts 288°
2026-04-23 19:34 24.44751 57.48814 33839 ft 437 kts 288°
2026-04-23 19:35 24.47670 57.39343 33842 ft 437 kts 288°
2026-04-23 19:35 24.49623 57.32993 33841 ft 435 kts 288°
2026-04-23 19:36 24.51542 57.26744 33840 ft 435 kts 288°
2026-04-23 19:36 24.53484 57.20409 33840 ft 435 kts 288°
2026-04-23 19:37 24.55397 57.14158 33843 ft 435 kts 288°
2026-04-23 19:37 24.57320 57.07864 33835 ft 434 kts 288°
2026-04-23 19:38 24.59230 57.01605 33607 ft 426 kts 288°
2026-04-23 19:38 24.60159 56.98555 33284 ft 417 kts 288°
2026-04-23 19:38 24.61082 56.95523 32993 ft 421 kts 288°
2026-04-23 19:38 24.62019 56.92438 32731 ft 430 kts 288°
2026-04-23 19:39 24.62973 56.89301 32342 ft 435 kts 288°
2026-04-23 19:39 24.63933 56.86150 31956 ft 434 kts 288°
2026-04-23 19:39 24.65166 56.83123 31552 ft 436 kts 298°
2026-04-23 19:39 24.66724 56.80275 31181 ft 435 kts 300°
2026-04-23 19:40 24.68304 56.77434 30811 ft 437 kts 300°
2026-04-23 19:40 24.69885 56.74575 30441 ft 438 kts 300°
2026-04-23 19:40 24.71466 56.71699 29895 ft 440 kts 300°
2026-04-23 19:40 24.73051 56.68821 29233 ft 439 kts 300°
2026-04-23 19:41 24.74638 56.65947 28587 ft 441 kts 300°
2026-04-23 19:41 24.76232 56.63055 27957 ft 443 kts 300°
2026-04-23 19:41 24.77825 56.60159 27335 ft 442 kts 300°
2026-04-23 19:41 24.79410 56.57274 26761 ft 440 kts 300°
2026-04-23 19:42 24.80990 56.54403 26152 ft 437 kts 300°
2026-04-23 19:42 24.82557 56.51551 25573 ft 434 kts 300°
2026-04-23 19:42 24.84114 56.48714 24982 ft 431 kts 300°
2026-04-23 19:42 24.85658 56.45900 24336 ft 428 kts 300°
2026-04-23 19:43 24.87126 56.43066 23514 ft 425 kts 294°
2026-04-23 19:43 24.88057 56.39996 22632 ft 421 kts 282°
2026-04-23 19:43 24.88376 56.36817 21856 ft 416 kts 270°
2026-04-23 19:43 24.88232 56.33659 21109 ft 410 kts 266°
2026-04-23 19:44 24.88048 56.30542 20393 ft 406 kts 266°
2026-04-23 19:44 24.88086 56.27465 19638 ft 401 kts 276°
2026-04-23 19:44 24.88648 56.24486 18932 ft 396 kts 286°
2026-04-23 19:44 24.89697 56.21702 18263 ft 393 kts 296°
2026-04-23 19:45 24.91040 56.19107 17487 ft 388 kts 298°
2026-04-23 19:45 24.92370 56.16542 16691 ft 385 kts 298°
2026-04-23 19:45 24.93687 56.13973 15885 ft 383 kts 297°
2026-04-23 19:45 24.94988 56.11432 15159 ft 379 kts 297°
2026-04-23 19:46 24.96284 56.08912 14425 ft 377 kts 297°
2026-04-23 19:46 24.97656 56.06461 13627 ft 377 kts 304°
2026-04-23 19:46 24.99410 56.04346 12751 ft 379 kts 310°
2026-04-23 19:46 25.01182 56.02185 12176 ft 370 kts 308°
2026-04-23 19:47 25.02302 56.00794 12040 ft 362 kts 309°
2026-04-23 19:47 25.04462 55.98135 12010 ft 333 kts 309°
2026-04-23 19:47 25.05967 55.96306 12000 ft 312 kts 309°
2026-04-23 19:47 25.07389 55.94568 11981 ft 299 kts 308°
2026-04-23 19:48 25.08736 55.92911 11209 ft 286 kts 308°
2026-04-23 19:48 25.10114 55.91206 10179 ft 307 kts 309°
2026-04-23 19:48 25.11502 55.89505 9848 ft 299 kts 309°
2026-04-23 19:48 25.12886 55.87813 9363 ft 295 kts 309°
2026-04-23 19:49 25.14246 55.86144 8741 ft 289 kts 309°
2026-04-23 19:49 25.15571 55.84490 7990 ft 285 kts 308°
2026-04-23 19:49 25.16632 55.82653 7173 ft 283 kts 299°
2026-04-23 19:49 25.17644 55.80809 6502 ft 279 kts 301°
2026-04-23 19:50 25.18664 55.79000 5805 ft 276 kts 301°
2026-04-23 19:50 25.19674 55.77203 5119 ft 274 kts 301°
2026-04-23 19:50 25.20466 55.75330 4423 ft 272 kts 282°
2026-04-23 19:50 25.20250 55.73268 3994 ft 273 kts 246°
2026-04-23 19:51 25.19022 55.71730 3982 ft 272 kts 212°
2026-04-23 19:51 25.17245 55.70972 4042 ft 276 kts 199°
2026-04-23 19:51 25.15513 55.70026 4039 ft 277 kts 210°
2026-04-23 19:51 25.13929 55.68824 3977 ft 278 kts 226°
2026-04-23 19:52 25.13192 55.67641 3984 ft 277 kts 246°
2026-04-23 19:52 25.12766 55.64886 3743 ft 273 kts 269°
2026-04-23 19:52 25.12762 55.62837 3515 ft 262 kts 271°
2026-04-23 19:52 25.12800 55.60857 3192 ft 255 kts 273°
2026-04-23 19:53 25.13112 55.58955 2774 ft 253 kts 287°
2026-04-23 19:53 25.13760 55.57193 2457 ft 241 kts 300°
2026-04-23 19:53 25.14620 55.55660 2194 ft 228 kts 305°
2026-04-23 19:53 25.15440 55.54222 2037 ft 214 kts 303°
2026-04-23 19:54 25.16179 55.52883 2001 ft 196 kts 304°
2026-04-23 19:54 25.16883 55.51608 2003 ft 195 kts 305°
2026-04-23 19:54 25.17592 55.50327 2006 ft 195 kts 305°
2026-04-23 19:54 25.18285 55.49070 1969 ft 186 kts 305°
2026-04-23 19:55 25.18944 55.47872 1718 ft 177 kts 306°
2026-04-23 19:55 25.19581 55.46737 1480 ft 169 kts 306°
2026-04-23 19:55 25.20171 55.45671 1284 ft 159 kts 305°
2026-04-23 19:55 25.20759 55.44612 1075 ft 164 kts 304°
2026-04-23 19:56 25.21344 55.43553 884 ft 158 kts 304°
2026-04-23 19:56 25.21910 55.42533 684 ft 153 kts 303°
2026-04-23 19:56 25.22466 55.41534 510 ft 153 kts 302°
2026-04-23 19:56 25.23018 55.40527 286 ft 152 kts 301°
2026-04-23 19:57 25.23558 55.39546 104 ft 149 kts 301°
2026-04-23 19:57 25.24081 55.38604 30 ft 125 kts 301°
2026-04-23 19:57 25.24346 55.38125 32 ft 97 kts 302°
2026-04-23 19:57 25.24720 55.37441 28 ft 62 kts 296°
2026-04-23 19:58 25.24784 55.37167 29 ft 45 kts 272°
2026-04-23 19:58 25.24796 55.36979 27 ft 0 kts 286°
2026-04-23 19:59 25.24796 55.36978 27 ft 1 kts 286°
2026-04-23 19:59 25.24803 55.36956 27 ft 9 kts 290°
2026-04-23 19:59 25.24848 55.36848 27 ft 20 kts 289°
2026-04-23 20:00 25.24892 55.36671 27 ft 25 kts 297°
2026-04-23 20:00 25.24982 55.36508 27 ft 26 kts 300°
2026-04-23 20:00 25.25078 55.36336 27 ft 26 kts 302°
2026-04-23 20:00 25.25173 55.36166 27 ft 26 kts 302°
2026-04-23 20:01 25.25271 55.35995 27 ft 27 kts 302°
2026-04-23 20:01 25.25368 55.35821 27 ft 27 kts 302°
2026-04-23 20:01 25.25466 55.35644 27 ft 27 kts 302°
2026-04-23 20:01 25.25567 55.35466 27 ft 27 kts 302°
2026-04-23 20:02 25.25667 55.35287 27 ft 28 kts 302°
2026-04-23 20:02 25.25766 55.35112 27 ft 22 kts 301°
2026-04-23 20:02 25.25781 55.35019 26 ft 13 kts 229°
2026-04-23 20:02 25.25701 55.34962 27 ft 15 kts 211°
2026-04-23 20:03 25.25634 55.34908 27 ft 8 kts 242°
2026-04-23 20:03 25.25638 55.34858 27 ft 7 kts 292°
2026-04-23 20:03 25.25655 55.34824 27 ft 3 kts 300°
2026-04-23 20:03 25.25660 55.34813 27 ft 0 kts 300°
2026-04-23 20:27 25.25660 55.34814 27 ft 0 kts 300°